Flag for Cyprus Weather past 2 weeks in Kyrenia, Cyprus

Now
75 °F

Passing clouds.


Feels Like: 77 °F
Forecast: 70 / 85 °F
Wind: 7 mph from West

Location: Ercan

Current Time: Sep 16, 2014 at 8:58:17 AM

Latest Report: Sep 16, 2014 at 8:20 AM


Visibility: N/A

Pressure: 29.80 "Hg

Humidity: 65%

Dew point: 63 °F

Location of KyreniaLocation

Historic Weather in Kyrenia — Graph

°F

Kyrenia temperature yesterday

Maximum temperature yesterday: 93 °F (at 1:20 PM)
Minimum temperature yesterday: 68 °F (at 6:50 AM)
Average temperature yesterday: 80 °F

Past Weeks' High & Low Weather Summary

 TemperatureHumidityPressure
High97 °F (Sep 4, 1:50 PM)94% (Sep 9, 4:50 PM)29.92 "Hg (Sep 9, 4:50 PM)
Low66 °F (Sep 9, 5:50 AM)23% (Sep 3, 1:50 PM)29.65 "Hg (Sep 5, 3:50 PM)
Average80 °F63%29.80 "Hg
* Reported Sep 1 7:20 AM — Sep 16 7:20 AM, Kyrenia, Weather by CustomWeather, © 2014

Note: Actual official high and low records may vary slightly from our data, if they occured in-between our weather recording intervals... More about our weather records

Advertising

Kyrenia weather history for previous 24 hours

 ConditionsComfort  
Time TempWeatherWind HumidityBarometerVisibility
7:20 AM
Sep 16
72 °FPassing clouds.6 mph69%29.80 "HgN/A
6:20 AM70 °FPassing clouds.8 mph73%29.80 "HgN/A
5:50 AM70 °FPassing clouds.5 mph73%29.80 "HgN/A
5:20 AM70 °FClear.6 mph73%29.80 "Hg10 mi
4:50 AM68 °FClear.6 mph78%29.80 "Hg10 mi
4:20 AM68 °FClear.7 mph78%29.80 "Hg10 mi
3:50 AM68 °FClear.8 mph78%29.77 "Hg10 mi
3:20 AM68 °FClear.7 mph83%29.80 "Hg10 mi
2:50 AM70 °FClear.7 mph78%29.80 "Hg10 mi
2:20 AM70 °FClear.6 mph83%29.80 "Hg10 mi
1:50 AM72 °FClear.5 mph78%29.80 "Hg10 mi
1:20 AM73 °FClear.No wind78%29.80 "Hg10 mi
12:50 AM73 °FClear.8 mph78%29.80 "Hg10 mi
12:20 AM73 °FClear.9 mph78%29.80 "Hg10 mi
11:50 PM
Sep 15
75 °FClear.9 mph74%29.80 "Hg10 mi
11:20 PM75 °FClear.12 mph78%29.80 "Hg10 mi
10:50 PM77 °FClear.15 mph74%29.80 "Hg10 mi
10:20 PM77 °FClear.15 mph74%29.80 "Hg10 mi
9:50 PM77 °FClear.17 mph74%29.80 "Hg10 mi
9:20 PM79 °FPassing clouds.17 mph70%29.80 "HgN/A
8:50 PM79 °FPassing clouds.14 mph65%29.80 "HgN/A
8:20 PM79 °FPassing clouds.14 mph65%29.80 "HgN/A
7:50 PM79 °FPassing clouds.14 mph61%29.80 "HgN/A
6:50 PM82 °FPassing clouds.16 mph48%29.77 "HgN/A
6:20 PM84 °FPassing clouds.17 mph48%29.77 "HgN/A
5:50 PM84 °FPassing clouds.10 mph58%29.77 "HgN/A
5:20 PM88 °FPassing clouds.10 mph46%29.77 "HgN/A
4:50 PM90 °FPassing clouds.13 mph36%29.77 "HgN/A
4:20 PM90 °FScattered clouds.16 mph36%29.77 "HgN/A
3:50 PM90 °FPassing clouds.10 mph38%29.77 "HgN/A
3:20 PM88 °FThunderstorms. Partly sunny.22 mph38%29.77 "Hg5 mi
2:50 PM90 °FScattered clouds.15 mph31%29.77 "HgN/A
2:20 PM90 °FScattered clouds.14 mph31%29.77 "HgN/A
1:50 PM93 °FScattered clouds.9 mph32%29.77 "HgN/A
1:20 PM93 °FPassing clouds.7 mph26%29.80 "HgN/A
12:50 PM91 °FPassing clouds.8 mph30%29.80 "HgN/A
12:20 PM90 °FPassing clouds.6 mph31%29.80 "HgN/A
11:50 AM90 °FPassing clouds.6 mph36%29.80 "HgN/A
11:20 AM88 °FPassing clouds.5 mph40%29.80 "HgN/A
10:50 AM86 °FPassing clouds.5 mph40%29.83 "HgN/A
10:20 AM84 °FPassing clouds.6 mph45%29.83 "HgN/A
9:50 AM84 °FPassing clouds.3 mph51%29.83 "HgN/A
9:20 AM81 °FPassing clouds.7 mph58%29.80 "HgN/A
8:50 AM79 °FPassing clouds.7 mph65%29.80 "HgN/A
8:20 AM77 °FPassing clouds.5 mph61%29.80 "HgN/A
Weather by CustomWeather, © 2014

See weather overviewHow to use our weather pages